Lapse_Rate
7.4 7.6 7.9 8.2 8.1 7.5 8.1 7.6 7.3 7.4 6.6 5.9 5.8 5.8 5.6 5.4 5.5 5.1 4.8 5.3 5.1 5.2 5.1 5.2 5.1 4.9 5.2 5.1 5.9 5.9 5.6 5.7 5.8 5.9 6.0 6.0 5.0 5.2 5.1 5.0 6.0 6.0 5.8 5.8
7.7 7.9 8.5 8.6 8.8 8.2 8.0 7.8 7.0 5.6 7.2 6.3 6.0 5.9 5.3 5.6 5.7 5.7 5.5 5.0 5.5 5.5 5.1 5.1 5.2 5.1 4.9 5.3 5.8 5.7 5.5 5.7 5.7 5.7 5.2 5.3 5.4 5.2 5.3 5.8 6.1 5.9 5.9 5.7
8.3 8.6 8.6 8.6 8.3 7.9 8.6 8.9 7.9 7.7 7.1 6.9 6.4 6.0 5.8 5.2 5.5 5.6 5.7 5.6 5.0 5.7 5.5 5.3 5.0 5.0 5.3 4.8 5.2 5.9 5.6 5.6 5.8 5.6 5.5 5.5 5.6 5.8 5.8 5.5 6.0 6.1 6.0 5.8
8.5 9.2 8.7 8.3 8.1 8.3 8.8 8.5 7.3 5.8 7.7 7.3 7.2 6.6 6.0 5.8 5.6 5.3 5.6 5.6 5.9 5.2 5.6 5.2 5.2 4.7 5.3 5.0 4.6 5.8 5.7 5.5 5.7 5.6 5.5 5.7 5.5 5.4 5.6 5.4 5.3 5.5 6.1 6.0
8.7 9.2 8.5 8.1 8.4 8.5 8.1 8.1 8.6 8.1 8.2 7.7 7.6 6.3 6.4 6.2 5.8 5.9 6.1 6.1 5.9 5.7 5.3 5.4 5.4 5.2 5.3 5.5 4.8 5.7 5.8 5.6 5.7 5.6 5.5 5.6 5.3 5.3 5.5 5.7 5.4 5.7 5.6 5.9
9.4 8.9 8.2 8.5 8.5 8.4 8.6 8.1 8.0 8.5 9.2 9.3 8.5 9.1 6.6 6.6 6.6 6.1 5.7 5.5 5.9 5.9 5.7 5.4 5.4 5.0 4.8 5.0 5.1 5.1 6.0 5.7 5.7 5.7 5.6 5.4 5.6 5.3 5.3 5.7 5.8 5.8 5.8 5.8
8.9 8.1 8.3 8.5 8.5 8.1 8.1 8.3 9.2 9.2 9.4 9.6 9.4 9.4 8.3 6.1 7.4 6.7 6.0 5.7 6.1 6.1 5.9 6.0 5.4 5.0 6.4 5.2 5.0 4.9 5.9 5.8 5.7 5.7 5.7 5.6 5.4 5.2 5.4 5.6 5.8 5.0 5.5 5.7
9.5 8.5 8.1 8.1 8.5 8.6 8.3 8.7 9.5 9.2 9.5 9.8 9.1 9.3 8.4 7.7 7.7 7.1 6.4 6.0 6.0 5.7 5.4 5.4 5.2 5.1 5.7 5.7 4.8 4.9 6.0 5.9 5.8 5.8 5.7 5.6 5.6 5.4 5.5 5.4 5.3 5.7 5.0 5.2
9.5 9.6 9.1 8.6 8.4 8.7 8.7 8.5 9.3 9.4 8.0 9.5 8.6 8.9 8.0 8.1 7.5 7.2 6.6 6.1 5.8 5.4 5.3 5.2 5.2 5.4 5.6 5.1 5.4 4.8 6.0 5.9 6.0 5.8 5.9 5.9 5.8 5.6 5.6 5.6 5.3 5.8 5.9 5.6
9.5 9.6 9.4 9.4 8.4 8.6 8.9 9.4 8.9 9.4 9.5 9.4 8.4 7.8 7.7 8.0 7.7 7.3 7.2 6.9 6.1 5.6 5.2 5.7 5.3 5.6 5.9 5.0 5.0 5.0 5.6 5.9 5.9 6.1 6.0 6.1 6.2 6.0 5.7 5.6 5.7 5.7 5.8 6.1
9.4 9.4 9.5 9.3 8.4 9.2 8.6 8.8 9.2 9.5 9.5 9.7 9.2 9.0 8.1 8.1 8.1 7.6 7.3 7.0 6.5 5.8 5.3 5.5 5.3 5.1 5.5 5.3 5.1 4.8 5.4 5.6 5.9 6.2 6.3 6.2 6.3 6.4 5.9 5.7 5.7 5.7 5.8 6.1
8.8 9.4 9.1 9.5 9.3 8.9 9.6 9.3 9.4 9.6 9.7 9.6 9.6 8.1 7.9 7.5 7.9 7.7 7.4 7.3 6.8 6.6 5.9 5.7 5.4 5.5 5.6 4.6 5.8 5.5 5.4 5.7 5.8 5.9 6.2 6.3 6.3 6.2 6.1 5.9 5.8 5.8 5.9 5.9
9.1 9.1 9.4 9.1 9.2 8.8 8.8 9.5 9.6 9.6 9.6 9.6 9.7 9.0 8.5 8.4 8.1 7.8 7.4 7.2 6.8 6.3 6.2 5.8 5.5 5.2 5.0 5.5 5.8 5.7 5.8 5.9 5.9 5.9 6.1 6.2 6.3 6.2 6.0 6.0 6.0 6.1 5.9 5.8
8.4 9.1 9.2 7.9 7.9 8.7 9.1 8.9 9.6 9.5 9.6 9.6 9.6 8.4 8.0 8.0 7.6 8.3 7.7 7.0 6.8 6.4 6.5 6.2 6.3 5.6 5.5 5.6 6.0 6.1 6.1 5.9 5.8 5.7 5.7 5.9 6.3 6.3 6.1 6.2 6.1 6.0 6.0 5.7
8.5 9.2 9.0 8.9 8.7 8.7 8.8 9.4 9.5 9.5 9.6 9.5 9.7 9.2 8.1 8.2 7.4 8.2 8.2 7.2 6.6 6.4 6.4 6.3 6.3 6.2 5.9 5.9 6.1 6.0 6.0 6.1 5.9 6.0 5.7 6.0 5.9 6.0 6.0 6.0 5.9 5.8 5.8 5.8
8.7 8.9 8.9 8.7 9.2 9.2 9.3 9.3 9.4 9.4 9.5 9.6 9.6 9.1 7.9 6.9 6.8 8.4 8.3 7.9 7.2 6.9 6.4 6.2 6.4 6.5 6.3 6.2 6.5 6.5 6.4 6.4 6.4 6.0 5.8 5.7 5.6 5.7 5.7 5.9 6.0 5.9 5.6 5.6
8.8 9.3 9.4 8.8 9.5 9.4 9.5 9.4 9.5 9.4 9.2 9.3 9.3 8.3 7.4 7.9 7.1 8.1 8.6 8.1 7.4 7.3 6.8 6.7 6.7 6.5 6.5 6.6 6.4 6.4 6.4 6.3 6.0 5.9 5.7 5.4 5.2 5.3 5.2 5.5 5.7 5.9 5.8 5.6
9.3 8.6 9.1 9.3 8.9 9.5 9.5 9.1 9.3 9.3 8.6 8.3 8.8 7.6 7.3 7.5 7.2 8.6 8.5 8.3 7.8 7.6 7.3 7.5 7.6 7.3 7.1 6.7 6.3 6.1 6.0 6.0 6.0 5.8 5.0 4.8 5.2 5.1 5.1 5.3 5.4 5.3 5.6 5.6
8.5 8.4 9.3 9.4 9.4 8.3 7.9 8.7 8.9 9.2 9.2 8.4 8.5 7.8 7.6 7.6 8.6 8.2 8.2 7.5 7.2 7.4 7.6 7.3 7.4 7.3 7.2 7.1 6.7 6.5 6.2 6.2 5.5 5.5 5.1 4.8 5.0 4.9 5.0 5.0 5.3 5.5 5.6 5.6
8.5 8.4 8.6 9.3 9.4 9.4 7.0 7.5 7.5 8.4 8.8 8.3 7.9 7.9 7.1 7.9 8.2 8.2 7.7 8.0 8.0 7.8 7.5 7.2 7.1 7.0 6.9 6.7 6.6 6.3 6.2 6.0 5.5 5.5 5.7 5.2 4.7 4.8 4.6 5.0 5.0 5.2 5.5 5.8
8.9 8.3 9.2 9.4 9.3 8.5 7.8 7.7 7.9 8.6 8.3 7.7 7.7 7.8 7.1 7.9 7.6 7.9 7.1 7.6 7.9 7.6 7.2 7.0 7.1 7.1 6.8 6.7 6.2 5.9 6.1 6.1 5.5 5.4 5.2 4.8 4.6 4.4 4.3 4.8 5.0 5.0 4.7 5.1
9.2 9.3 9.3 9.4 8.8 7.7 7.3 8.0 8.3 7.5 7.4 7.4 7.4 7.4 6.7 7.5 7.6 7.4 7.4 7.5 7.1 7.0 6.8 6.5 6.6 6.8 6.5 6.2 6.2 6.4 6.1 6.0 5.8 5.6 5.7 5.4 4.9 4.8 4.6 4.7 4.3 4.5 4.6 4.6
8.5 9.1 8.4 8.3 8.0 7.6 7.6 7.6 7.7 7.6 7.2 7.1 7.8 7.2 7.4 7.0 7.5 7.2 7.3 7.1 7.0 6.9 6.5 6.5 6.6 6.4 6.4 6.5 6.4 6.1 5.9 5.6 5.9 5.8 5.9 5.5 5.4 5.0 5.0 5.2 5.1 5.1 4.9 5.0
8.1 8.5 8.7 8.3 7.6 8.2 7.6 7.5 7.7 7.5 7.2 7.5 7.5 7.4 7.4 6.9 7.3 7.1 7.3 6.9 6.5 6.3 6.1 6.1 6.1 6.2 6.1 5.9 6.0 6.2 6.2 5.9 5.7 5.7 5.9 5.9 5.9 5.5 5.5 5.5 5.7 5.3 5.3 5.2
9.0 7.9 8.5 8.9 8.1 7.2 7.9 7.4 7.2 7.4 7.5 7.5 7.6 7.3 7.0 7.0 7.4 7.1 7.1 6.9 6.6 6.1 6.0 6.0 5.7 5.8 5.6 5.8 5.9 5.8 5.7 5.6 5.5 5.5 5.2 5.6 5.7 5.6 5.6 5.6 5.5 5.8 6.2 6.0
8.0 8.1 9.1 9.2 8.6 7.1 8.3 7.2 7.2 7.0 7.0 7.4 7.3 6.6 6.6 6.6 7.0 7.0 7.0 6.9 6.8 6.1 5.9 6.1 5.1 4.7 4.9 4.9 5.0 5.1 5.2 5.3 5.0 5.5 5.4 5.7 5.7 5.8 5.8 5.8 6.0 6.2 6.5 6.6
Wind_Speed
16 13 16 18 20 9 9 8 6 4 22 19 13 11 18 9 9 9 7 8 12 14 11 14 13 13 12 13 10 9 8 9 8 8 7 5 7 3 2 8 9 4 5 5
13 17 18 17 12 7 6 16 13 21 16 12 13 12 16 16 14 11 5 11 11 21 15 13 15 13 13 15 11 10 8 10 8 2 1 2 3 1 0 3 10 8 6 4
15 15 16 12 6 11 15 16 5 1 13 8 15 11 14 16 16 18 14 19 2 9 1 16 11 9 15 13 14 11 12 10 8 3 3 2 2 3 5 5 5 7 7 7
15 8 11 10 14 15 12 5 15 22 16 8 17 5 16 17 21 22 25 19 11 7 13 18 18 11 13 15 12 12 11 11 10 8 6 8 6 3 3 3 2 7 8 7
15 14 9 13 16 12 5 10 10 3 13 6 8 6 5 22 20 27 27 26 18 25 26 16 18 18 16 13 14 13 11 11 8 8 5 7 7 3 6 2 4 3 8 8
9 5 11 17 14 6 5 8 10 8 9 11 20 13 12 19 23 24 21 25 22 23 17 10 10 17 12 8 14 14 12 10 9 8 7 4 3 7 3 6 6 7 8 8
8 9 10 8 11 9 12 14 8 7 6 10 2 6 11 5 18 23 26 23 25 24 18 14 16 5 14 14 14 14 13 11 11 10 8 7 5 3 3 4 7 5 4 4
11 15 18 13 15 12 17 17 11 14 12 13 16 6 12 20 12 16 22 22 23 25 21 17 12 22 27 14 10 14 14 12 11 10 10 6 7 6 7 8 4 7 5 4
14 14 21 13 16 14 14 16 21 18 15 12 3 1 8 14 14 14 20 23 20 20 21 20 7 6 8 15 10 10 15 12 12 11 9 8 7 4 4 4 5 4 3 5
3 7 8 12 12 16 18 8 15 11 16 17 11 12 2 12 14 14 14 21 22 18 21 18 15 15 7 15 13 14 15 14 13 12 10 9 10 8 6 6 6 4 3 5
13 13 8 15 12 14 12 13 9 14 13 13 12 5 8 16 14 14 14 16 22 21 20 17 11 14 5 9 13 14 14 14 13 12 11 10 8 9 7 7 8 7 7 7
11 7 14 16 18 17 10 18 15 10 12 13 17 5 12 5 8 10 10 14 21 19 20 18 13 11 13 13 13 10 14 14 14 13 11 11 10 7 9 8 9 8 8 7
2 9 4 6 12 10 11 12 16 19 16 17 13 5 8 6 8 9 10 14 17 19 16 19 8 6 8 5 7 12 11 12 13 13 14 12 12 11 10 9 8 5 9 10
5 14 14 7 8 15 18 20 10 16 11 12 13 18 9 11 12 11 9 16 14 15 14 15 11 5 8 10 7 6 7 4 6 9 10 12 12 11 10 8 7 7 7 8
6 13 11 7 7 12 12 7 16 14 17 16 12 13 5 14 16 15 14 9 12 13 14 14 15 12 10 8 8 8 9 9 10 9 9 9 7 9 10 8 8 7 8 4
5 10 10 12 12 7 10 10 8 11 14 17 18 2 11 10 17 14 15 10 10 10 10 12 11 13 10 10 9 9 8 6 6 8 6 7 6 5 7 8 7 7 8 9
4 9 4 13 14 7 12 13 11 12 7 8 9 11 4 4 11 11 13 13 13 12 9 11 9 7 6 7 9 9 9 8 5 5 4 5 5 5 6 5 6 5 5 6
5 6 9 10 7 12 2 10 3 4 5 11 15 2 5 6 8 10 10 9 8 11 11 9 8 8 10 10 10 8 7 8 6 6 7 7 2 2 5 4 6 6 4 3
4 9 9 10 10 14 8 6 2 6 3 9 8 7 10 10 8 4 3 7 8 12 10 7 7 7 5 9 10 11 9 8 8 8 7 6 6 5 8 8 8 5 6 5
12 9 11 11 10 8 6 1 4 6 10 6 5 4 6 3 5 5 5 14 12 12 10 8 9 9 9 7 8 11 10 8 9 10 7 6 5 5 8 6 6 5 5 5
8 10 13 13 11 3 3 3 4 8 4 8 8 8 11 7 7 12 8 12 13 12 12 10 10 10 8 8 8 8 11 10 7 10 9 7 5 5 6 5 4 7 2 6
13 8 9 13 3 8 9 5 4 6 7 7 8 5 8 7 11 11 14 13 14 13 13 12 11 11 8 8 9 8 7 8 9 9 10 7 6 3 5 8 4 2 3 3
9 11 6 9 5 10 5 8 7 7 7 7 6 4 7 9 15 12 11 10 10 11 10 9 10 11 7 6 6 6 4 4 8 8 6 8 6 6 7 6 4 3 3 6
5 7 9 8 16 6 7 9 8 6 6 5 4 4 3 13 14 13 14 11 7 7 8 8 8 7 7 5 4 8 5 4 4 5 8 6 7 7 7 4 5 4 4 3
3 12 10 10 10 12 3 7 6 5 5 5 2 5 9 13 16 13 13 15 12 11 7 5 6 6 4 4 7 5 5 4 4 6 3 6 7 6 7 8 6 6 8 6
9 7 8 6 20 5 11 6 6 5 5 4 3 4 4 15 14 16 13 13 15 14 10 7 6 5 5 4 1 9 5 2 5 5 5 4 6 6 7 7 8 14 11 15
Wind_Direction
201 212 212 205 218 140 284 277 283 18 166 163 169 145 174 191 179 159 277 190 183 149 155 158 149 147 156 155 147 149 124 144 146 173 183 168 170 121 167 138 118 122 141 118
185 219 215 240 222 236 220 273 167 176 148 132 162 145 167 175 192 205 192 248 220 142 172 165 155 160 155 158 152 159 151 158 208 185 5 36 90 13 132 137 154 202 169 168
205 205 227 219 209 231 230 235 194 209 161 160 133 147 186 187 191 189 215 229 225 245 136 160 161 170 166 157 159 157 168 177 204 171 140 166 55 161 181 133 162 183 185 182
229 220 196 187 231 229 233 222 111 272 175 175 187 158 189 186 191 196 201 217 160 322 275 236 166 184 184 157 167 165 167 174 193 194 192 156 211 171 201 221 161 149 192 200
214 160 209 215 223 213 86 280 255 236 150 156 243 154 199 182 199 196 198 203 199 180 226 242 177 175 171 170 160 163 173 173 182 185 263 187 238 181 183 136 150 284 167 214
267 177 214 221 212 207 239 235 247 250 265 246 187 236 181 198 196 195 193 198 193 204 227 221 255 167 133 190 160 154 169 171 181 181 194 205 283 280 120 189 171 198 195 194
146 219 200 260 206 184 232 233 203 217 219 247 212 208 116 259 181 188 186 205 186 198 213 237 186 137 159 185 167 152 163 181 186 185 189 197 197 215 236 196 201 241 196 186
195 182 208 192 225 189 223 234 236 200 217 222 152 202 144 162 152 175 180 196 189 193 199 221 231 138 233 173 166 164 161 181 188 194 183 205 192 209 195 214 313 195 217 152
188 236 176 201 213 250 186 229 259 279 291 265 251 309 140 144 147 168 183 185 188 191 188 209 209 236 220 166 164 164 159 181 186 187 183 191 195 206 223 299 214 184 266 140
313 208 168 191 220 216 258 221 232 256 255 256 147 194 314 171 166 172 195 182 181 181 182 194 203 225 205 179 178 180 164 182 185 188 185 189 194 186 196 197 230 252 191 198
275 243 157 188 208 216 207 238 245 264 243 265 271 72 70 163 162 166 189 196 163 170 179 186 198 198 195 191 167 173 176 182 190 192 186 192 205 190 185 206 210 213 214 208
240 273 182 190 214 229 271 211 233 233 225 262 279 149 285 2 123 144 175 179 155 167 175 185 193 194 149 232 131 201 187 188 193 185 191 193 198 205 186 222 171 204 199 224
308 250 181 298 174 207 246 250 225 228 236 251 259 135 156 158 131 143 166 164 144 159 171 177 153 166 181 133 173 197 199 201 195 192 190 191 196 197 206 192 203 207 203 197
313 268 298 106 313 302 199 232 236 273 260 245 240 121 163 170 148 143 148 127 150 145 152 163 167 185 162 155 175 192 216 253 246 200 196 188 195 201 205 199 203 200 198 199
276 289 288 138 232 288 340 220 212 244 267 274 261 359 60 185 155 147 132 141 151 160 164 167 176 183 182 180 169 207 192 208 223 249 208 190 190 205 201 179 200 216 192 219
251 272 291 297 277 247 271 256 273 271 250 256 277 190 34 358 111 118 130 154 163 168 163 162 174 167 177 177 185 197 188 187 183 207 175 175 178 193 200 198 187 205 208 230
250 269 238 269 263 231 251 243 239 253 281 278 279 70 228 154 120 121 138 157 169 167 163 176 160 176 165 118 111 105 97 89 87 151 150 164 204 176 167 185 170 170 205 212
241 249 280 276 29 242 206 23 62 321 53 335 285 323 51 84 99 125 147 161 146 152 123 117 107 92 119 131 127 115 111 116 108 77 44 12 48 106 117 147 143 142 117 98
236 277 256 253 224 191 196 105 250 216 152 338 336 24 70 90 116 131 169 177 186 109 95 92 96 90 78 141 139 132 127 125 103 75 53 59 12 43 49 51 47 72 129 116
263 210 272 261 284 262 3 283 317 303 252 50 331 341 102 183 230 120 136 100 100 99 116 121 107 90 67 46 137 125 129 136 123 101 84 62 76 64 75 53 6 15 35 77
221 241 248 238 228 106 192 317 318 236 44 355 345 331 124 211 12 118 101 106 97 107 113 108 98 89 77 64 63 102 126 117 99 99 96 77 43 55 70 71 26 33 39 84
290 263 246 262 211 252 322 236 295 23 319 354 330 323 102 104 119 116 99 109 114 114 113 109 103 92 87 84 90 86 84 102 108 100 90 80 104 20 84 82 123 103 48 87
256 286 341 346 21 121 121 78 59 12 357 348 315 76 160 168 119 118 100 103 104 115 104 97 103 106 92 85 101 103 104 81 105 103 98 101 91 72 83 76 65 39 146 175
223 225 253 202 200 166 106 99 63 27 7 358 300 90 213 118 130 141 135 113 82 87 104 114 110 101 106 109 92 115 120 135 111 99 118 128 116 107 100 67 67 61 51 58
324 20 254 255 106 352 196 100 94 76 45 46 49 157 133 134 143 158 136 131 122 114 87 54 102 103 87 87 123 125 158 172 122 116 159 142 129 109 85 60 47 87 54 29
250 235 252 270 21 264 110 126 123 106 86 80 124 131 141 132 154 145 147 136 131 122 112 110 108 100 121 134 86 137 161 138 146 119 183 175 140 143 132 126 99 56 68 72